OPS 4682 DEB, 38365

Orbit data source: Space-Track

OPS 4682 DEB, 38365 is space debris in LEO originally from a launch on Sat, 03 Apr 1965 UTC launched from the Air Force Western Test Range (AFWTR). Debris objects in space refer to the collection of defunct objects orbiting the Earth. Examples of debris include non-operational satellites, rocket bodies, and fragments generated from explosions, collisions, or faulty payload assembly.

Loading next visibility...
Identifier
38365, 1965-027BS
Orbit
LEO
Country
Flag of USUS
Related business
Manufacturer
Unknown
Mission
Spacecraft
Bus & Motor
Unknown
Mass
Unknown
Launch date (UTC)
1965-04-03 (61 years ago)
Launch vehicle
Unknown
Launch site
Air Force Western Test Range (AFWTR)
Object type
Payload
Rocket body
Debris
Shape & HBR
Unknown shape, 0.1 m
Radar Cross Section
Small (<0.1 m²)

Expand to show TLE details & history
Last TLE update: 1 day ago

TLE from 1 day ago
0 OPS 4682 DEB
1 38365U 65027BS  25292.42049433  .00000169  00000-0  54544-3 0  9995
2 38365  90.2431 350.7179 0023649 259.4031 100.4427 12.99030297601058
Epoch: 2025-10-19T10:05Z
TLE epoch observation values (Epoch: 2025-10-19T10:05:30.710Z)
Latitude
0.00003°
Longitude
171.20253°
Altitude
1,272.089 km
Speed
7.218 km/s
True Right ascension
23h 22m 52s
True Declination
0° 00' 00"
Sunlit
Object was in full shadow at epoch
Visualization orbit readout
Latitude
Unknown
Longitude
Unknown
Altitude
Unknown
Speed
Unknown
Apparent Right ascension
Unknown
Apparent Declination
Unknown
Sunlit
N/A
Visualization observer readout
Local Sidereal Time
08:29:10
Azimuth
Unknown
Elevation
Unknown
Doppler factor
Unknown
Orbital elements
Apogee altitude
1,281.087 km
Perigee altitude
1,244.946 km
Semi-major axis
7,641.154 km
Eccentricity
0.00236
Inclination
90.2431°
RAAN
350.7179°
Arg. of periapsis
259.4031°
True anomaly
100.70907°
Mean anomaly
100.4427°
Eccentric anomaly
100.5759°
Mean motion
3.24941 °/min
Orbital period
110.79 mins
BSTAR
0.00054544
Loading maneuver chart data...
Computing Atmospheric mass density...
Loading historical data...
Loading historical data...
Loading historical data...
Loading historical data...
Loading historical data...
Loading historical data...
Loading historical data...

Documentation

Showing up to 5 results
|